Location: Rosenheim
(47.8408°N, 12.2113°E)
Time: 08:20:29
(UTC+02:00)

ISS - Pass Details

Date: 04 January 2018
Orbit: 402 x 408 km, 51.6° (Epoch: 22 July)

Event Time Altitude Azimuth Distance (km) Brightness Sun altitude
Exits shadow 05:27:43 29° 56° (NE) 807 -1.9 -24.6°
Drops below altitude 10° 05:29:32 10° 65° (ENE) 1,502 -0.2 -24.3°
Sets 05:31:39 0° 68° (ENE) 2,371 1.0 -23.9°
